STARLINK BJ

Last updated on June 19, 2020, 12:02 a.m. UTC

1 45786U 20038BJ  20170.75001157  .00111528  11274-4  13882-3 0  9991
2 45786  52.9997 271.8085 0111466  69.5782 147.0813 15.96107414  1957

Satellite is not in orbit.